Regional Weather Roundup
Issued by NWS State College, PA

Home | Current Version | Previous Version | Text Only | Print | Product List | Glossary On
Versions: 1 2 3 4 5 6 7 8 9 10 11 12 13 14 15 16 17 18 19 20 21 22 23 24 25 26 27 28 29 30 31 32 33 34 35 36 37 38 39 40 41 42 43 44 45 46 47 48 49 50
806
ASUS41 KCTP 140610
RWRCTP

REGIONAL WEATHER ROUNDUP
NATIONAL WEATHER SERVICE STATE COLLEGE PA
100 AM EST THU DEC 14 2017

Note: "fair" indicates few or no clouds below 12,000 feet with no
significant weather and/or obstructions to visibility.

* = STATION THAT DOES NOT REPORT PRECIPITATION /E.G. RAIN...SNOW...ETC/
    THUNDER OR FOG.

PAZ002>004-007>009-013>016-020>023-029>032-140700-
WESTERN PENNSYLVANIA

CITY           SKY/WX    TMP DP  RH WIND       PRES   REMARKS
ERIE           LGT SNOW  21  17  84 NE7       29.46S FOG     WCI  12
MEADVILLE      LGT SNOW  19  18  95 NE6       29.39S VSB 1   WCI  11
FRANKLIN*      LGT SNOW  19  16  86 NE5       29.37F VSB 3/4 WCI  13
NEW CASTLE     LGT SNOW  23  22  96 CALM      29.38F FOG
BEAVER COUNTY  NOT AVBL
BUTLER*        LGT SNOW  24  22  91 S6        29.37F FOG
PITTSBURGH INT LGT SNOW  29  24  82 SW7       29.37F
PITTSBURGH     LGT SNOW  26  21  81 S10       29.37F
INDIANA*       FOG       28  28 100 SW14G21   29.41F VSB 1/2
LATROBE        LGT SNOW  32  27  80 SW14      29.40F
WASHINGTON CO* FLURRIES  34  23  64 SW13G23   29.42S
$$

PAZ004>006-010>012-017>019-024>028-033>037-041-042-045-046-049>053-140700-
CENTRAL PENNSYLVANIA

CITY           SKY/WX    TMP DP  RH WIND       PRES   REMARKS
BRADFORD       LGT SNOW  15  12  88 E5        29.36F VSB 1   WCI   8
DUBOIS         LGT SNOW  19  15  84 E3        29.36F VSB 3/4
CLEARFIELD     LGT SNOW  18  16  92 NE7       29.40F FOG     WCI   9
JOHNSTOWN      LGT SNOW  26  24  92 SW10      29.33F VSB 3/4
ALTOONA        LGT SNOW  25  22  88 CALM      29.41F VSB 1
STATE COLLEGE  LGT SNOW  19  17  92 N3        29.45F
WILLIAMSPORT   LGT SNOW  22  17  81 E9        29.52F WCI  12
SELINSGROVE    LGT SNOW  21  19  92 NE5       29.54F FOG     WCI  15
FT INDIANTOWN  FLURRIES  22  22  99 NE3       29.55F
CAPITAL CITY   CLOUDY    26  21  81 E6        29.54F
HARRISBURG     CLOUDY    25  23  92 E6        29.54F
YORK           CLOUDY    26  24  92 CALM      29.53F
$$

PAZ038>040-043-044-047-048-054-055-060>062-067>071-140700-
EASTERN PENNSYLVANIA

CITY           SKY/WX    TMP DP  RH WIND       PRES   REMARKS
SCRANTON       LGT SNOW  20  16  84 NE3       29.52F VSB 1
MOUNT POCONO   LGT SNOW  15  13  91 CALM      29.46F FOG
ALLENTOWN      LGT SNOW  23  18  81 E5        29.59F
QUAKERTOWN*    CLOUDY    23  21  93 CALM      29.58F
READING        CLOUDY    24  23  96 SE3       29.57F
LANCASTER      CLOUDY    24  23  96 E6        29.55F
COATESVILLE    CLOUDY    25  25 100 SE3       29.56F FOG
POTTSTOWN      LGT SNOW  23  21  92 CALM      29.59F FOG
BLUE BELL      CLOUDY    25  23  93 CALM      29.61F
DOYLESTOWN     LGT SNOW  23  21  92 CALM      29.59F FOG
WILLOW GROVE   NOT AVBL
NORTH PHILA    CLOUDY    27  24  89 S5        29.63F
PHILADELPHIA   CLOUDY    28  25  88 SE5       29.62F
$$




USA.gov is the U.S. government's official web portal to all federal, state and local government web resources and services.